Weather History for Seldovia, AK

Change the Weather History Date:

Monday, December 24, 2012

  Actual Average (PAHO) Record (PAHO)
Temperature  
Mean Temperature 29 °F -  
Max Temperature 30 °F 33 °F 46 °F (1962)
Min Temperature 28 °F 21 °F -9 °F (1942)
Degree Days  
Heating Degree Days 36    
Moisture  
Dew Point 27 °F    
Average Humidity 90    
Maximum Humidity 100    
Minimum Humidity 85    
Precipitation  
Precipitation 0.33 in - - ()
Sea Level Pressure  
Sea Level Pressure 29.27 in    
Wind  
Wind Speed 10 mph (NNE)    
Max Wind Speed 16 mph    
Max Gust Speed 22 mph    
Visibility 1 miles    
Events Fog , Snow    
Averages and records for this station are not official NWS values.
T = Trace of Precipitation, MM = Missing Value Source: NWS Daily Summary

Daily Weather History Graph

Daily Weather History Graph

Search for Another Location

Airport:

Trip Planner

Search our weather history database for the weather conditions in past years. The results will help you decide how hot, cold, wet, or windy it might be!

Date:

Astronomy

Dec. 24, 2012 Rise Set
Actual Time 10:04 AM AKST 4:08 PM AKST
Civil Twilight 9:09 AM AKST 5:04 PM AKST
Nautical Twilight 8:13 AM AKST 6:00 PM AKST
Astronomical Twilight 7:22 AM AKST 6:50 PM AKST
Moon 2:02 PM AKST (12/24) 6:30 AM AKST (12/24)
Length of Visible Light 7h 55m
Length of Day
6h 03m
Waxing Gibbous, 89% of the Moon is Illuminated
Dec 24
Waxing Gibbous
Dec 28
Full
Jan 4
Last Quarter
Jan 11
New
Jan 18
First Quarter

Hourly Weather History & Observations

Time (AKST) Temp. Windchill Dew Point Humidity Pressure Visibility Wind Dir Wind Speed Gust Speed Precip Events Conditions
12:51 AM 30.2 °F 20.2 °F 26.6 °F 86% 29.32 in 2.0 mi NNE 12.7 mph - 0.06 in Snow Light Snow
12:53 AM 30.0 °F 20.5 °F 26.1 °F 85% 29.32 in 2.5 mi NNE 11.5 mph - 0.06 in Snow Light Snow
1:04 AM 30.2 °F 21.3 °F 26.6 °F 86% 29.31 in 0.8 mi North 10.4 mph - 0.00 in Snow Light Snow
1:12 AM 30.2 °F 20.8 °F 26.6 °F 86% 29.31 in 0.5 mi North 11.5 mph - 0.01 in Fog , Snow Snow
1:24 AM 30.2 °F 20.2 °F 26.6 °F 86% 29.31 in 1.0 mi North 12.7 mph - 0.01 in Snow Light Snow
1:48 AM 30.2 °F 18.9 °F 26.6 °F 86% 29.31 in 0.8 mi NNE 16.1 mph 21.9 mph 0.02 in Snow Light Snow
1:53 AM 30.0 °F 21.1 °F 27.0 °F 88% 29.31 in 1.0 mi NNE 10.4 mph 21.9 mph 0.02 in Snow Light Snow
2:36 AM 30.2 °F 19.3 °F 26.6 °F 86% 29.28 in 2.5 mi NNE 15.0 mph 21.9 mph 0.01 in Snow Light Snow
2:43 AM 30.2 °F 20.2 °F 26.6 °F 86% 29.28 in 4.0 mi NNE 12.7 mph 21.9 mph 0.01 in Snow Light Snow
2:50 AM 30.2 °F 19.8 °F 26.6 °F 86% 29.27 in 1.8 mi North 13.8 mph 19.6 mph 0.01 in Snow Light Snow
3:08 AM 30.2 °F 21.3 °F 26.6 °F 86% 29.27 in 0.8 mi North 10.4 mph 20.7 mph 0.01 in Snow Light Snow
3:34 AM 30.2 °F 20.8 °F 26.6 °F 86% 29.27 in 0.5 mi NNE 11.5 mph - 0.03 in Fog , Snow Snow
3:53 AM 28.9 °F 19.2 °F 27.0 °F 92% 29.26 in 0.2 mi NNE 11.5 mph - 0.07 in Fog , Snow Heavy Snow
4:00 AM 28.4 °F 18.5 °F 26.6 °F 93% 29.26 in 0.2 mi NNE 11.5 mph - 0.02 in Fog , Snow Heavy Snow
4:29 AM 28.4 °F - 26.6 °F 93% 29.26 in 0.5 mi Calm Calm - 0.09 in Fog , Snow Snow
4:38 AM 28.4 °F 23.3 °F 26.6 °F 93% 29.26 in 0.5 mi NNE 4.6 mph - 0.10 in Fog , Snow Snow
4:42 AM 28.4 °F 22.2 °F 26.6 °F 93% 29.25 in 0.2 mi NNE 5.8 mph - 0.11 in Fog , Snow Heavy Snow
4:50 AM 28.4 °F 22.2 °F 26.6 °F 93% 29.24 in 0.5 mi North 5.8 mph - 0.13 in Fog , Snow Snow
4:53 AM 28.9 °F 21.9 °F 27.0 °F 92% 29.25 in 0.5 mi NNE 6.9 mph - 0.13 in Fog , Snow Snow
5:13 AM 30.2 °F 24.3 °F 26.6 °F 86% 29.24 in 1.0 mi NNE 5.8 mph - 0.01 in Snow Light Snow
5:37 AM 30.2 °F - 26.6 °F 86% 29.23 in 1.5 mi Calm Calm - 0.02 in Snow Light Snow
5:53 AM 28.9 °F 23.9 °F 27.0 °F 92% 29.23 in 1.0 mi South 4.6 mph - 0.02 in Snow Light Snow
5:59 AM 28.4 °F - 26.6 °F 93% 29.23 in 0.8 mi Calm Calm - 0.01 in Snow Light Snow
6:14 AM 28.4 °F 24.6 °F 26.6 °F 93% 29.25 in 0.5 mi South 3.5 mph - 0.03 in Fog , Snow Snow
6:33 AM 28.4 °F - 28.4 °F 100% 29.25 in 0.8 mi Calm Calm - 0.03 in Snow Light Snow
6:41 AM 28.4 °F - 28.4 °F 100% 29.26 in 1.8 mi Calm Calm - 0.03 in Snow Light Snow
6:53 AM 28.9 °F 25.2 °F 28.0 °F 96% 29.26 in 1.0 mi NNE 3.5 mph - 0.03 in Snow Light Snow